Regional Weather Roundup
Issued by NWS

Home | Current Version | Previous Version | Graphics & Text | Print | Product List | Glossary On
Versions: 1 2 3 4 5 6 7 8 9 10 11 12 13 14 15 16 17 18 19 20 21 22 23 24 25 26 27 28 29 30 31 32 33 34 35 36 37 38 39 40 41 42 43 44 45 46 47 48 49 50
000
ASUS43 KLOT 312112
RWRIL

ILLINOIS REGIONAL WEATHER ROUNDUP
NATIONAL WEATHER SERVICE CHICAGO/ROMEOVILLE IL
400 PM CDT FRI JUL 31 2015

NOTE: "FAIR" INDICATES FEW OR NO CLOUDS BELOW 12,000 FEET WITH NO
SIGNIFICANT WEATHER AND/OR OBSTRUCTIONS TO VISIBILITY.

* THESE STATIONS ARE NOT UNDER NWS QUALITY CONTROL. THEY ALSO MAY NOT
  REPORT WEATHER SUCH AS PRECIPITATION OR FOG.

ILZ001-002-007-009-015-016-024-312200-
NORTHWEST ILLINOIS

CITY           SKY/WX    TMP DP  RH WIND       PRES   REMARKS
MOLINE         SUNNY     89  58  34 NW18G26   30.01F HX  88
STERLING*      SUNNY     84  59  42 NW17G28   29.97F HX  84
SAVANNA*       SUNNY     85  54  34 W14       30.00S HX  83
$$

ILZ003-004-008-010-011-017-018-312200-
NORTH CENTRAL ILLINOIS

CITY           SKY/WX    TMP DP  RH WIND       PRES   REMARKS
ROCKFORD       MOSUNNY   85  50  29 NW21G30   29.99F HX  83
FREEPORT*      SUNNY     82  52  35 NW18G28   30.01S HX  81
ROCHELLE*      SUNNY     83  55  37 W20G29    29.99S HX  82
DE KALB*       SUNNY     83  56  40 NW17G25   29.99S HX  82
PERU*          SUNNY     85  53  34 W16G24    29.99F HX  83
$$

ILZ005-006-012>014-019>023-312200-
NORTHEAST ILLINOIS

CITY           SKY/WX    TMP DP  RH WIND       PRES   REMARKS
CHICAGO-OHARE  MOSUNNY   86  50  28 NW17G29   29.93F HX  84
CHICAGO-MIDWAY MOSUNNY   89  48  24 NW18G30   29.94S HX  86
AURORA         SUNNY     84  55  36 NW14G24   29.97F HX  83
LANSING*       SUNNY     86  51  29 NW17G25   29.94F HX  84
JOLIET*        SUNNY     87  54  31 W15G22    29.96F HX  85
WAUKEGAN       MOSUNNY   82  47  29 NW14G26   29.93F HX  80
DUPAGE AIRPORT SUNNY     84  50  30 NW16G26   29.95F HX  82
KANKAKEE*      SUNNY     86  58  37 NW14G20   29.97F HX  85
WHEELING       SUNNY     86  46  24 NW21G36   29.95S HX  83
MORRIS*        SUNNY     84  58  41 NW20G28   29.96F HX  84
ROMEOVILLE*    SUNNY     85  49  28 NW18G30   29.96S HX  82
NORTHERLY ISL    N/A     85  48  27 W15         N/A  HX  82
$$

LMZ740>746-312200-
SOUTHERN LAKE MICHIGAN

STATION/POSITION SKY/WX   TEMP    WIND        PRES    VSBY  WAVE
                          AIR SEA DIR/SP/G                  HT/PER
                          (F)     (DEG/KT/KT) (MB)    (MI)  (FT/S)
HARRISON CRIB              82     290/ 20/ 26   N/A
BURNHAM HARBOR             85     280/ 15/ 20   N/A
CALUMET HARBOR             87     270/  9/ 15   N/A
BURNS HARBOR               80      10/  1/  4 1014.6F
MICHIGAN CITY              79     250/  5/  6   N/A
MICHIGAN CITY 6N           78 75  330/  8/ 10   N/A           1/ 3
ST. JOSEPH                 76 74  340/ 12/ 14   N/A           2/ 4
$$

ILZ025>027-034>036-040-047-049-050-058-095>099-312200-
WEST-CENTRAL ILLINOIS

CITY           SKY/WX    TMP DP  RH WIND       PRES   REMARKS
QUINCY         SUNNY     87  63  44 W9        30.05F HX  88
GALESBURG*     SUNNY     86  61  42 W7        30.04F HX  86
MACOMB*        SUNNY     87  65  47 NW7       30.06F HX  88
JACKSONVILLE*  SUNNY     89  70  53 W7        30.04F HX  94
PITTSFIELD*    SUNNY     88  65  45 W5        30.06F HX  90
$$

ILZ028>032-037-038-041>044-048-051>054-059>061-312200-
CENTRAL ILLINOIS

CITY           SKY/WX    TMP DP  RH WIND       PRES   REMARKS
PONTIAC        SUNNY     85  64  49 NW15G22   30.00F HX  86
BLOOMINGTON    SUNNY     88  58  36 NW16      30.04S HX  87
DECATUR        MOSUNNY   90  59  35 NW15G23   30.02F HX  89
PEORIA         SUNNY     90  60  36 NW7       30.02F HX  89
LACON*         SUNNY     85  58  39 NW10      30.00S HX  85
LINCOLN*       SUNNY     91  54  28 NW7       30.01F HX  88
SPRINGFIELD    SUNNY     90  67  46 N12       30.03F HX  93
TAYLORVILLE    MOSUNNY   86  68  54 NW8       30.03F HX  89
$$

ILZ033-039-045-046-055>057-062-063-312200-
EAST-CENTRAL ILLINOIS

CITY           SKY/WX    TMP DP  RH WIND       PRES   REMARKS
CHAMPAIGN      SUNNY     86  57  37 NW14      30.02F HX  85
DANVILLE*      SUNNY     85  59  41 NW12G23   29.98S HX  84
RANTOUL*       SUNNY     89  59  36 NW15G23   30.01S HX  88
MATTOON        MOSUNNY   90  63  40 NW14      30.02F HX  91
PARIS*         MOSUNNY   87  65  47 W17G25    30.02S HX  89
$$

ILZ079-100>102-312200-
SOUTHWEST ILLINOIS

CITY           SKY/WX    TMP DP  RH WIND       PRES   REMARKS
BELLEVILLE     SUNNY     91  66  43 VRB6      30.03F HX  93
CAHOKIA*       SUNNY     94  55  26 NW8       30.03F HX  92
SPARTA*        SUNNY     88  65  47 NW8       30.06F HX  89
$$

ILZ064>066-069>071-074>076-080>082-084>086-088>090-092>094-312200-
SOUTH-CENTRAL ILLINOIS

CITY           SKY/WX    TMP DP  RH WIND       PRES   REMARKS
CARBONDALE     MOSUNNY   90  66  45 N3        30.05F HX  92
CAIRO*         SUNNY     88  68  51 N6        30.05S HX  91
EFFINGHAM*     MOSUNNY   89  60  38 W8        30.04F HX  88
MARION         MOSUNNY   88  66  48 NW8       30.06F HX  90
MT. VERNON     MOSUNNY   90  64  43 N3        30.05  HX  91
CENTRALIA*     MOSUNNY   89  62  40 W7        30.04F HX  89
SALEM*         SUNNY     90  65  42 NW6       30.05S HX  92
METROPOLIS*    SUNNY     88  69  53 N7        30.05F HX  92
$$

ILZ067-068-072-073-078-083-087-091-312200-
SOUTHEAST ILLINOIS

CITY           SKY/WX    TMP DP  RH WIND       PRES   REMARKS
LAWRENCEVILLE  SUNNY     90  64  42 NW10      30.02F HX  91
FLORA*         SUNNY     89  65  44 NW6       30.03F HX  91
FAIRFIELD*     SUNNY     88  66  48 NW5       30.02F HX  90
HARRISBURG*    SUNNY     89  65  44 N5        30.05F HX  90
ROBINSON*      SUNNY     87  66  48 W9        30.03S HX  90
CARMI*         SUNNY     88  62  42 CALM      30.02F HX  88
$$

ABBREVIATIONS USED IN REMARKS
   TC - TEMPERATURE IN CELSIUS
  WCI - WIND CHILL INDEX
   HX - HEAT INDEX
  VSB - VISIBILITY
$$



USA.gov is the U.S. government's official web portal to all federal, state and local government web resources and services.